Location: Góry Miechowskie
(50.3599°N, 20.1803°E)
Time: 12:35:52
(UTC+00:00)

Vanguard 1 Rocket - Pass Details

Date: 15 September 2024
Orbit: 650 x 4218 km, 34.3° (Epoch: 12 October)

Event Time Altitude Azimuth Distance (km) Brightness Sun altitude
Rises 05:44:57 0° 263° (W) 6,809 11.3 13.4°
Reaches altitude 10° 05:49:06 10° 258° (WSW) 6,175 11.1 14.0°
Maximum altitude 06:09:23 49° 192° (SSW) 4,833 11.3 17.1°
Drops below altitude 10° 06:32:54 10° 127° (SE) 7,019 13.7 20.7°
Sets 06:38:04 0° 123° (ESE) 7,749 13.6 21.4°
